Location: Rounton
(54.4000°N, 1.3500°W)
Time: 04:58:10
(UTC+00:00)

A-11 Canister half - Pass Details

Date: 08 December 2021
Orbit: 1524 x 1684 km, 47.3° (Epoch: 17 January)

Event Time Altitude Azimuth Distance (km) Brightness Sun altitude
Exits shadow 03:58:34 58° 188° (S) 1,898 9.2 -35.5°
Maximum altitude 03:58:39 58° 186° (S) 1,897 9.2 -35.4°
Drops below altitude 10° 04:08:16 10° 111° (ESE) 3,864 11.7 -34.1°
Sets 04:11:24 0° 108° (ESE) 4,828 12.5 -33.6°
